Location: Baia Mare
(47.6567°N, 23.5850°E)
Time: 22:25:25
(UTC+03:00)

ISS - Pass Details

Date: 04 March 2018
Orbit: 403 x 407 km, 51.6° (Epoch: 21 June)

Event Time Altitude Azimuth Distance (km) Brightness Sun altitude
Exits shadow 05:26:05 41° 224° (SW) 618 -3.3 -16.8°
Maximum altitude 05:27:05 71° 153° (SSE) 441 -3.7 -16.6°
Drops below altitude 10° 05:30:24 10° 69° (ENE) 1,484 0.3 -16.1°
Sets 05:32:30 0° 67° (ENE) 2,346 1.6 -15.7°
